AGILA

Last updated on Mon Sep 07 2026 00:03:02 GMT+0000 (Coordinated Universal Time)

1 62456U 24252C 26249.54076521 -.00000198 00000+0 00000+0 0 9998 2 62456 0.0333 222.5874 0001037 310.4144 159.4811 1.00271524 5974
UTC large
Height (km)
Speed (km/s)
/
Latitude / Longitude
Inclination (degrees)
Orbital Period (minutes)
Azimuth
Elevation
Range (km)
Doppler Factor

Next 0 passes for location: London (51.5072 / 0.1276)

No passes found over London.
AGILA